Wind_Speed
3 3 4 4 5 5 5 6 6 6 5 5 5 5 6 5 5 6 6 6 6 6 6 7 7 7 8 8 8 9 10 10 10 9 9 9 9 9 9 9 9 9 8
5 5 5 5 5 5 5 5 5 5 5 5 5 5 6 6 6 6 7 6 6 7 7 7 8 8 9 9 10 10 10 10 10 10 10 11 11 11 10 10 10 10 10
6 6 5 5 5 5 6 6 6 6 6 6 6 6 6 7 7 7 7 7 7 7 7 8 9 9 9 10 10 10 12 12 12 12 12 12 11 12 12 12 12 11 11
6 5 5 5 5 6 6 6 6 6 6 6 6 6 6 7 8 8 8 7 7 7 8 8 8 9 10 10 10 10 11 12 12 12 12 12 12 13 13 13 13 12 12
6 5 5 5 6 6 6 6 5 6 6 6 6 5 6 7 8 8 7 7 7 8 8 8 9 9 9 10 10 9 10 11 12 12 13 13 13 13 13 13 13 13 13
5 5 4 5 5 5 5 5 5 5 5 5 5 5 6 7 8 7 7 8 8 9 8 8 9 9 9 9 10 10 10 11 11 12 12 12 13 14 14 13 13 13 14
5 4 4 4 5 4 5 5 5 5 5 5 5 5 6 7 7 7 7 8 8 9 8 8 9 9 10 9 10 10 11 12 12 13 13 13 14 14 14 14 14 14 15
5 5 5 4 3 4 4 4 4 4 4 5 5 6 7 8 8 8 7 7 7 8 8 8 9 9 9 10 10 10 11 12 12 12 13 13 13 14 14 15 15 15 15
5 5 5 4 3 3 3 4 3 3 3 4 5 5 6 7 7 8 8 8 8 8 8 8 9 9 10 10 10 11 11 12 13 13 13 13 14 15 16 16 16 16 16
5 5 5 4 4 4 4 4 3 3 4 4 4 5 6 5 7 7 8 8 8 8 8 8 9 9 9 10 10 11 12 12 13 13 13 14 14 14 14 14 15 15 16
5 5 5 4 4 4 4 4 4 4 4 4 5 5 4 4 5 6 7 7 7 8 8 9 9 9 9 10 11 11 11 12 12 12 12 13 14 14 13 14 14 15 15
5 5 5 4 4 4 4 4 4 4 4 5 5 6 5 4 4 5 5 5 7 7 8 9 9 9 10 10 11 11 11 11 12 12 12 13 14 14 14 14 14 15 16
5 5 5 4 4 4 4 4 4 4 5 5 6 6 6 5 4 5 5 5 6 7 8 9 10 10 10 10 11 11 11 11 11 12 12 13 13 14 15 15 15 15 15
4 5 5 4 4 4 4 5 5 5 5 6 6 5 6 5 5 6 6 6 6 7 8 9 9 9 9 10 10 11 11 11 11 11 12 12 13 14 14 14 14 14 14
4 4 5 5 5 4 4 5 5 5 6 6 6 5 5 5 5 6 7 6 6 7 8 9 9 9 10 10 10 11 11 11 11 11 12 12 12 13 14 14 14 15 15
4 4 5 5 5 5 5 5 6 6 6 6 6 6 6 6 6 6 7 7 7 7 8 9 9 9 10 10 11 11 11 11 11 12 12 12 12 13 13 14 14 14 15
4 5 5 5 5 5 6 5 5 6 6 7 7 7 7 7 7 7 7 7 7 7 8 9 9 9 9 10 10 11 11 12 12 12 11 12 12 12 12 13 14 14 14
5 5 5 5 6 6 6 6 6 6 7 7 7 7 7 8 8 8 8 8 8 8 8 9 9 9 9 10 10 11 11 12 12 11 12 12 12 12 12 13 13 13 13
5 5 6 6 6 6 6 6 6 7 8 8 8 8 9 9 9 9 9 9 9 9 9 9 9 9 9 9 10 10 11 11 11 11 12 13 13 13 12 13 13 13 13
5 5 6 6 7 7 7 7 7 7 8 8 9 9 10 10 9 9 9 9 9 9 9 9 9 9 9 9 9 9 10 10 11 11 11 12 12 13 13 13 13 13 14
6 7 7 7 7 7 8 8 8 8 8 9 9 10 11 10 10 10 10 10 10 9 10 9 9 9 8 9 9 9 10 10 11 12 12 12 13 13 13 12 13 13 14
7 7 8 7 8 8 9 9 10 10 10 10 11 11 11 11 11 11 11 10 10 9 10 10 9 9 9 9 9 9 10 10 10 11 11 12 12 12 12 12 12 12 13
7 8 8 9 9 10 10 10 11 12 12 12 11 11 11 11 12 12 11 11 11 10 10 10 10 10 10 10 9 9 10 10 10 10 10 11 11 11 11 11 12 12 12
8 8 9 9 10 11 11 12 12 12 13 12 12 12 12 12 12 12 12 12 11 11 11 11 11 10 10 10 10 10 10 10 10 10 11 11 11 11 11 11 12 12 12
9 9 9 10 11 12 12 12 12 13 12 12 12 12 12 12 13 13 13 13 12 12 11 11 11 12 12 12 11 11 12 11 11 11 11 10 10 10 10 11 11 12 12
11 11 11 11 12 13 13 13 13 13 13 13 13 13 13 13 13 13 13 13 13 13 13 12 12 13 13 12 12 12 12 12 12 11 11 11 11 11 11 11 12 12 12
Wind_Direction
291 288 288 292 290 292 294 290 284 283 282 284 274 258 251 247 254 254 258 262 264 268 266 258 255 254 260 263 255 249 245 246 246 244 240 239 234 235 233 233 235 233 233
296 289 288 288 292 297 295 289 284 277 275 279 275 266 255 246 250 254 261 260 261 264 266 264 259 255 260 262 256 254 250 248 247 246 245 243 240 240 239 241 243 238 235
296 285 285 286 294 296 293 289 282 278 276 276 274 269 263 255 252 255 258 259 260 261 265 269 265 263 262 263 260 260 252 246 246 246 246 246 245 243 242 242 243 241 238
305 295 295 298 298 295 293 286 277 274 274 276 275 271 267 261 256 255 257 257 261 261 263 268 268 264 263 264 264 265 250 242 243 244 244 245 247 247 245 243 243 244 244
307 303 313 306 300 299 294 288 284 282 279 276 274 271 269 262 257 252 253 253 257 261 267 266 266 265 266 266 267 259 245 240 243 243 246 246 246 246 246 247 244 243 245
316 310 315 308 306 302 296 294 294 292 284 280 276 271 271 264 256 248 250 254 258 262 268 262 261 264 266 269 267 260 249 246 249 249 249 246 247 247 245 247 246 247 248
335 330 326 316 315 315 306 302 301 297 285 275 277 275 272 266 256 251 249 253 256 263 268 263 264 266 265 265 264 260 254 250 251 251 253 251 250 249 249 247 249 251 253
339 338 336 330 322 327 324 318 313 308 289 276 276 274 271 266 261 255 250 249 253 259 264 263 265 265 265 266 263 257 253 251 250 249 252 250 249 251 252 249 250 252 249
341 346 347 340 331 330 330 319 310 297 294 299 287 278 276 270 260 256 255 254 253 252 254 259 263 263 267 267 264 258 251 250 250 251 254 254 253 255 257 255 251 252 250
340 347 353 348 346 342 338 328 316 308 304 301 288 285 287 263 261 261 257 257 256 254 256 262 266 268 268 267 263 259 257 255 254 253 256 256 255 257 257 256 253 251 252
342 347 350 347 345 344 338 334 331 324 317 313 298 293 304 278 267 261 259 256 253 254 258 263 266 267 270 270 267 265 263 261 258 258 259 258 258 258 258 256 256 255 254
349 351 352 349 350 350 343 336 332 319 313 313 309 304 309 302 278 268 266 260 259 257 260 262 265 270 272 271 268 266 265 262 260 259 259 258 259 257 258 258 260 258 255
347 353 355 353 356 352 347 340 329 321 316 316 316 317 311 309 294 278 271 270 266 263 263 264 264 270 272 271 271 269 266 263 261 260 260 261 261 259 258 259 261 261 256
342 348 348 352 356 351 343 337 333 329 323 323 321 317 308 304 300 298 292 287 276 269 267 266 269 271 274 273 270 270 268 270 267 265 264 264 261 259 257 257 259 261 257
338 342 339 338 340 342 336 332 331 328 322 322 325 322 313 310 304 299 295 289 278 272 272 276 276 275 277 275 271 271 271 271 271 270 269 268 268 263 260 259 259 260 258
329 334 335 332 333 334 333 332 330 327 324 321 319 315 312 310 308 303 300 295 285 279 277 281 282 279 277 275 274 272 270 272 272 271 270 270 269 267 263 260 260 258 259
324 326 327 325 327 328 329 330 328 324 324 320 317 312 313 312 309 305 300 296 291 288 284 283 285 284 280 276 275 272 272 272 270 269 269 269 269 267 264 261 261 262 263
319 322 326 327 327 326 326 324 321 317 317 317 318 315 313 311 310 307 303 297 293 291 290 288 290 290 289 284 282 280 277 275 272 270 269 270 268 267 266 263 262 262 262
307 313 319 325 328 325 323 323 321 316 315 315 317 316 313 310 308 307 305 301 295 291 288 289 291 292 292 289 286 284 280 278 273 272 269 270 269 267 267 265 263 264 265
303 307 312 318 320 318 315 317 321 318 315 313 313 312 312 312 310 307 306 303 300 293 289 289 292 294 293 290 289 286 281 281 278 276 273 272 269 267 268 265 264 264 265
304 305 308 310 311 313 314 313 313 313 311 310 309 309 311 310 311 308 306 302 298 294 289 289 290 293 292 292 291 289 286 283 280 279 276 274 272 272 270 266 263 264 266
302 305 307 308 309 311 312 312 309 307 307 307 305 305 306 306 306 307 305 300 294 291 288 285 284 286 288 290 291 291 289 286 284 281 279 276 273 272 269 266 265 266 266
300 301 304 308 309 308 308 307 306 305 306 305 302 302 303 304 305 304 303 300 295 288 284 282 280 280 283 287 287 289 289 286 287 286 283 278 272 268 266 266 266 267 267
293 296 303 307 307 306 303 303 303 303 303 303 302 300 302 302 302 301 298 294 292 289 285 280 278 277 280 283 284 285 287 286 286 287 283 279 274 271 271 268 268 268 267
291 293 299 302 302 303 302 302 302 303 303 304 302 299 300 301 300 299 296 292 289 286 285 283 278 276 278 281 283 284 286 288 285 285 285 280 276 275 276 274 272 270 270
287 290 292 295 298 300 301 301 302 301 301 302 301 299 299 300 299 298 295 290 288 287 284 282 279 278 278 280 282 283 284 286 285 284 284 282 279 276 275 273 270 269 268
Height
5859 5859 5859 5859 5858 5858 5858 5858 5858 5858 5858 5858 5858 5859 5859 5859 5860 5860 5861 5862 5862 5863 5863 5864 5864 5864 5864 5865 5865 5866 5866 5867 5868 5869 5870 5871 5873 5873 5874 5875 5876 5877 5878
5858 5858 5858 5858 5857 5857 5857 5857 5857 5857 5857 5857 5857 5857 5858 5858 5859 5859 5860 5860 5861 5861 5862 5862 5862 5863 5863 5863 5864 5864 5864 5865 5866 5867 5869 5870 5871 5872 5873 5874 5874 5875 5877
5857 5857 5857 5856 5856 5856 5856 5855 5855 5855 5856 5856 5856 5856 5856 5857 5857 5858 5858 5859 5860 5860 5860 5860 5861 5861 5861 5862 5862 5861 5861 5862 5864 5865 5867 5868 5869 5870 5871 5872 5873 5874 5875
5856 5856 5856 5855 5855 5855 5854 5854 5854 5854 5854 5854 5854 5854 5854 5855 5856 5856 5857 5857 5858 5858 5859 5859 5859 5859 5859 5860 5860 5858 5856 5859 5862 5863 5865 5866 5867 5868 5869 5870 5871 5872 5873
5856 5855 5855 5854 5854 5854 5853 5853 5853 5852 5853 5853 5853 5853 5853 5853 5854 5854 5855 5855 5856 5856 5857 5857 5858 5857 5858 5858 5858 5857 5856 5857 5860 5861 5863 5864 5865 5866 5867 5868 5868 5870 5871
5855 5854 5854 5853 5853 5852 5852 5852 5851 5851 5851 5851 5851 5851 5851 5851 5851 5852 5853 5853 5854 5854 5855 5855 5856 5856 5856 5856 5856 5856 5856 5857 5858 5860 5861 5862 5863 5864 5865 5866 5866 5867 5868
5855 5854 5853 5852 5852 5851 5851 5850 5850 5850 5850 5850 5850 5850 5850 5850 5850 5850 5851 5851 5852 5852 5853 5853 5854 5854 5854 5854 5854 5855 5855 5856 5857 5858 5859 5860 5861 5861 5862 5863 5864 5865 5865
5854 5853 5852 5851 5851 5850 5850 5850 5849 5849 5849 5849 5849 5849 5848 5848 5848 5848 5849 5849 5850 5850 5851 5851 5852 5852 5852 5852 5852 5853 5853 5854 5855 5855 5857 5857 5858 5859 5860 5860 5861 5862 5863
5854 5853 5852 5851 5850 5850 5849 5849 5848 5848 5848 5848 5847 5847 5846 5846 5846 5846 5847 5847 5848 5848 5849 5849 5850 5850 5850 5850 5850 5850 5851 5851 5852 5853 5854 5855 5855 5856 5857 5857 5858 5859 5860
5853 5852 5851 5850 5850 5849 5848 5848 5848 5847 5847 5847 5846 5846 5845 5844 5844 5845 5846 5846 5846 5847 5847 5848 5848 5848 5848 5848 5848 5848 5849 5849 5850 5851 5851 5852 5852 5853 5854 5854 5855 5856 5856
5853 5852 5851 5850 5849 5848 5848 5847 5847 5847 5846 5846 5845 5845 5844 5842 5843 5843 5844 5844 5844 5845 5845 5846 5846 5846 5846 5846 5846 5846 5847 5847 5848 5848 5849 5849 5850 5850 5851 5851 5852 5853 5853
5852 5851 5850 5850 5849 5848 5848 5847 5847 5846 5846 5845 5844 5844 5843 5842 5842 5842 5842 5842 5843 5843 5843 5844 5844 5844 5844 5844 5844 5844 5845 5845 5846 5846 5846 5847 5847 5847 5848 5848 5849 5849 5850
5852 5851 5850 5849 5849 5848 5847 5847 5846 5846 5845 5844 5844 5843 5843 5842 5842 5841 5841 5841 5841 5842 5842 5842 5842 5842 5842 5842 5842 5842 5842 5843 5843 5843 5843 5844 5844 5844 5845 5845 5846 5846 5846
5851 5850 5850 5849 5849 5848 5847 5846 5846 5845 5844 5844 5843 5842 5842 5841 5841 5841 5841 5840 5840 5840 5840 5840 5840 5840 5840 5840 5840 5840 5840 5840 5840 5840 5841 5841 5841 5841 5841 5842 5842 5843 5843
5851 5850 5849 5849 5848 5847 5847 5846 5845 5844 5844 5843 5842 5842 5841 5840 5840 5840 5839 5839 5839 5838 5838 5838 5838 5838 5838 5838 5837 5837 5837 5837 5837 5837 5837 5838 5838 5838 5838 5838 5839 5839 5840
5850 5850 5849 5848 5847 5847 5846 5845 5844 5844 5843 5842 5841 5840 5840 5839 5839 5838 5838 5837 5837 5837 5836 5836 5836 5836 5836 5835 5835 5835 5835 5835 5835 5835 5834 5835 5834 5834 5835 5835 5835 5836 5836
5850 5849 5848 5848 5847 5846 5845 5844 5844 5843 5842 5841 5840 5839 5839 5838 5837 5837 5836 5836 5835 5835 5834 5834 5834 5833 5833 5833 5833 5832 5832 5832 5832 5832 5832 5831 5831 5832 5832 5832 5832 5833 5833
5849 5848 5848 5847 5846 5845 5844 5843 5843 5842 5841 5840 5839 5838 5837 5837 5836 5835 5834 5834 5833 5832 5832 5832 5832 5831 5830 5830 5830 5829 5829 5829 5828 5829 5829 5828 5828 5829 5829 5829 5829 5830 5830
5848 5847 5847 5846 5845 5844 5843 5842 5842 5841 5840 5839 5838 5837 5836 5835 5834 5833 5832 5831 5831 5830 5830 5830 5829 5829 5828 5827 5827 5827 5826 5826 5825 5825 5825 5825 5825 5825 5825 5826 5826 5826 5827
5847 5846 5846 5845 5844 5843 5842 5841 5841 5840 5839 5837 5836 5835 5834 5833 5832 5831 5830 5829 5829 5828 5828 5827 5827 5826 5825 5825 5824 5824 5823 5823 5823 5822 5822 5822 5822 5822 5822 5822 5822 5823 5823
5846 5845 5844 5843 5842 5842 5841 5840 5839 5838 5837 5836 5835 5834 5833 5831 5830 5829 5828 5827 5826 5826 5825 5825 5824 5824 5823 5822 5822 5821 5821 5820 5820 5820 5819 5819 5819 5818 5818 5819 5819 5819 5820
5844 5843 5843 5842 5841 5840 5839 5838 5837 5836 5835 5834 5833 5831 5830 5829 5828 5827 5826 5825 5824 5823 5823 5822 5822 5821 5821 5820 5820 5819 5818 5818 5817 5817 5816 5816 5815 5815 5815 5815 5816 5816 5816
5842 5841 5841 5840 5839 5838 5837 5836 5835 5834 5833 5831 5830 5829 5828 5827 5826 5824 5823 5822 5821 5821 5820 5819 5819 5819 5818 5818 5817 5817 5816 5815 5815 5814 5813 5813 5812 5812 5812 5812 5812 5813 5813
5840 5839 5839 5838 5837 5836 5835 5834 5833 5831 5830 5829 5827 5826 5825 5824 5823 5822 5821 5820 5819 5818 5817 5817 5816 5816 5816 5815 5815 5814 5814 5813 5812 5812 5811 5810 5809 5809 5809 5809 5809 5809 5809
5838 5837 5836 5835 5835 5833 5832 5831 5830 5828 5827 5826 5824 5823 5822 5821 5820 5818 5817 5817 5816 5815 5814 5814 5813 5813 5813 5812 5812 5811 5810 5810 5809 5809 5808 5808 5807 5806 5806 5806 5806 5806 5806
5836 5835 5834 5833 5832 5831 5829 5828 5827 5825 5824 5823 5821 5820 5819 5818 5816 5815 5814 5813 5812 5812 5811 5810 5809 5809 5809 5809 5808 5808 5807 5807 5807 5806 5805 5805 5804 5804 5803 5803 5803 5803 5803